| time (UTC) | temp F | wind direction | speed MPH | gust MPH | rain 1hr in | rain 24hr in | rain mn in | humidity % | barometer mb |
| 20260507023301 | 77 | 264 | 0.0 | 0.0 | 0.00 | 0.00 | 0.00 | 59 | 1010.7 |
| 20260507022313 | 77 | 231 | 0.0 | 6.0 | 0.00 | 0.00 | 0.00 | 60 | 1010.9 |
| 20260507021301 | 77 | 239 | 0.0 | 0.0 | 0.00 | 0.00 | 0.00 | 61 | 1010.9 |
| 20260507020259 | 77 | 208 | 0.0 | 0.0 | 0.00 | 0.00 | 0.00 | 61 | 1010.7 |
| 20260507015314 | 77 | 286 | 0.0 | 0.0 | 0.00 | 0.00 | 0.00 | 63 | 1010.8 |
| 20260507014240 | 76 | 202 | 0.0 | 8.0 | 0.00 | 0.00 | 0.00 | 62 | 1010.6 |
| 20260507013227 | 76 | 189 | 1.0 | 5.0 | 0.00 | 0.00 | 0.00 | 64 | 1010.6 |
| 20260507012210 | 77 | 217 | 1.0 | 7.0 | 0.00 | 0.00 | 0.00 | 65 | 1010.1 |
| 20260507011159 | 77 | 193 | 1.0 | 5.0 | 0.00 | 0.00 | 0.00 | 65 | 1010.1 |
| 20260507010135 | 78 | 206 | 0.0 | 2.0 | 0.00 | 0.00 | 0.00 | 62 | 1010.6 |
| 20260507002902 | 80 | 206 | 0.0 | 3.0 | 0.00 | 0.00 | 0.00 | 57 | 1010.6 |
| 20260507001854 | 81 | 207 | 0.0 | 10.0 | 0.00 | 0.00 | 0.00 | 56 | 1010.7 |
| 20260507000906 | 82 | 196 | 1.0 | 10.0 | 0.00 | 0.00 | 0.00 | 55 | 1010.7 |
| 20260506235927 | 82 | 200 | 1.0 | 11.0 | 0.00 | 0.00 | 0.00 | 54 | 1010.8 |
| 20260506234858 | 82 | 182 | 1.0 | 11.0 | 0.00 | 0.00 | 0.00 | 54 | 1011.0 |
| 20260506233850 | 83 | 188 | 2.0 | 11.0 | 0.00 | 0.00 | 0.00 | 54 | 1010.9 |
| 20260506232912 | 83 | 262 | 0.0 | 7.0 | 0.00 | 0.00 | 0.00 | 55 | 1010.9 |
| 20260506231857 | 84 | 225 | 2.0 | 12.0 | 0.00 | 0.00 | 0.00 | 55 | 1010.7 |
| 20260506230906 | 84 | 185 | 2.0 | 14.0 | 0.00 | 0.00 | 0.00 | 55 | 1010.9 |
| 20260506225918 | 84 | 194 | 3.0 | 14.0 | 0.00 | 0.00 | 0.00 | 55 | 1010.7 |
| 20260506224851 | 84 | 172 | 3.0 | 11.0 | 0.00 | 0.00 | 0.00 | 55 | 1010.6 |
| 20260506223823 | 85 | 196 | 2.0 | 12.0 | 0.00 | 0.00 | 0.00 | 58 | 1010.4 |
| 20260506221651 | 86 | 200 | 2.0 | 10.0 | 0.00 | 0.00 | 0.00 | 50 | 1010.4 |
| 20260506220629 | 86 | 202 | 2.0 | 10.0 | 0.00 | 0.00 | 0.00 | 50 | 1010.6 |
| 20260506214518 | 87 | 207 | 3.0 | 12.0 | 0.00 | 0.00 | 0.00 | 47 | 1011.1 |
| 20260506213541 | 87 | 223 | 1.0 | 17.0 | 0.00 | 0.00 | 0.00 | 47 | 1011.0 |
| 20260506212544 | 87 | 273 | 2.0 | 17.0 | 0.00 | 0.00 | 0.00 | 46 | 1011.0 |
| 20260506211516 | 88 | 195 | 3.0 | 13.0 | 0.00 | 0.00 | 0.00 | 45 | 1010.9 |
| 20260506210529 | 88 | 197 | 2.0 | 12.0 | 0.00 | 0.00 | 0.00 | 46 | 1011.0 |
| 20260506205549 | 89 | 251 | 2.0 | 12.0 | 0.00 | 0.00 | 0.00 | 43 | 1011.0 |
| 20260506204558 | 90 | 227 | 1.0 | 17.0 | 0.00 | 0.00 | 0.00 | 44 | 1011.2 |
| 20260506202437 | 89 | 217 | 3.0 | 13.0 | 0.00 | 0.00 | 0.00 | 45 | 1011.3 |
| 20260506201447 | 89 | 203 | 4.0 | 12.0 | 0.00 | 0.00 | 0.00 | 43 | 1011.4 |
| 20260506200419 | 89 | 162 | 2.0 | 14.0 | 0.00 | 0.00 | 0.00 | 44 | 1011.6 |
| 20260506195428 | 88 | 188 | 2.0 | 15.0 | 0.00 | 0.00 | 0.00 | 44 | 1011.9 |
| 20260506194412 | 88 | 188 | 2.0 | 15.0 | 0.00 | 0.00 | 0.00 | 45 | 1012.2 |
| 20260506191047 | 88 | 190 | 3.0 | 16.0 | 0.00 | 0.00 | 0.00 | 45 | 1012.6 |
| 20260506190059 | 87 | 211 | 3.0 | 16.0 | 0.00 | 0.00 | 0.00 | 45 | 1012.7 |
| 20260506185115 | 87 | 269 | 3.0 | 11.0 | 0.00 | 0.00 | 0.00 | 44 | 1012.6 |
| 20260506184128 | 86 | 225 | 2.0 | 16.0 | 0.00 | 0.00 | 0.00 | 45 | 1012.8 |
| 20260506183148 | 86 | 166 | 4.0 | 16.0 | 0.00 | 0.00 | 0.00 | 46 | 1012.8 |
| 20260506182147 | 86 | 163 | 4.0 | 15.0 | 0.00 | 0.00 | 0.00 | 47 | 1012.9 |
| 20260506181151 | 85 | 215 | 4.0 | 16.0 | 0.00 | 0.00 | 0.00 | 51 | 1013.3 |
| 20260506175027 | 83 | 200 | 0.0 | 9.0 | 0.00 | 0.00 | 0.00 | 56 | 1013.6 |
| 20260506174052 | 83 | 269 | 3.0 | 15.0 | 0.00 | 0.00 | 0.00 | 58 | 1013.8 |
| 20260506173110 | 83 | 186 | 2.0 | 10.0 | 0.00 | 0.00 | 0.00 | 56 | 1014.0 |
| 20260506172055 | 82 | 189 | 3.0 | 9.0 | 0.00 | 0.00 | 0.00 | 59 | 1014.3 |
| 20260506171030 | 81 | 209 | 2.0 | 14.0 | 0.00 | 0.00 | 0.00 | 60 | 1014.6 |
| 20260506170002 | 80 | 216 | 1.0 | 14.0 | 0.00 | 0.00 | 0.00 | 61 | 1014.9 |
| 20260506162718 | 79 | 182 | 2.0 | 11.0 | 0.00 | 0.00 | 0.00 | 64 | 1015.3 |
| 20260506161705 | 79 | 246 | 1.0 | 15.0 | 0.00 | 0.00 | 0.00 | 66 | 1015.4 |
| 20260506160713 | 78 | 242 | 2.0 | 15.0 | 0.00 | 0.00 | 0.00 | 66 | 1015.4 |
| 20260506155646 | 76 | 271 | 1.0 | 5.0 | 0.00 | 0.00 | 0.00 | 70 | 1015.3 |
| 20260506154630 | 76 | 185 | 1.0 | 10.0 | 0.00 | 0.00 | 0.00 | 70 | 1015.5 |
| 20260506153606 | 75 | 234 | 1.0 | 9.0 | 0.00 | 0.00 | 0.00 | 70 | 1015.3 |
| 20260506152538 | 76 | 188 | 0.0 | 3.0 | 0.00 | 0.00 | 0.00 | 72 | 1015.0 |
| 20260506151556 | 76 | 218 | 3.0 | 12.0 | 0.00 | 0.00 | 0.00 | 71 | 1014.8 |
| 20260506150615 | 76 | 159 | 2.0 | 12.0 | 0.00 | 0.00 | 0.00 | 71 | 1014.7 |
| 20260506145544 | 75 | 202 | 1.0 | 10.0 | 0.00 | 0.00 | 0.00 | 72 | 1014.7 |
| 20260506144525 | 74 | 232 | 1.0 | 11.0 | 0.00 | 0.00 | 0.00 | 73 | 1014.8 |
| 20260506142322 | 73 | 182 | 0.0 | 6.0 | 0.00 | 0.00 | 0.00 | 77 | 1014.9 |
| 20260506141337 | 72 | 221 | 2.0 | 9.0 | 0.00 | 0.00 | 0.00 | 78 | 1014.9 |
| 20260506140312 | 71 | 174 | 1.0 | 9.0 | 0.00 | 0.00 | 0.00 | 79 | 1014.9 |
| 20260506135306 | 71 | 223 | 0.0 | 0.0 | 0.00 | 0.00 | 0.00 | 79 | 1014.9 |
| 20260506133150 | 69 | 227 | 0.0 | 0.0 | 0.00 | 0.00 | 0.00 | 82 | 1014.7 |
| 20260506132213 | 69 | 223 | 0.0 | 0.0 | 0.00 | 0.00 | 0.00 | 82 | 1014.8 |
| 20260506131158 | 68 | 239 | 1.0 | 9.0 | 0.00 | 0.00 | 0.00 | 84 | 1014.7 |
| 20260506130205 | 66 | 196 | 1.0 | 6.0 | 0.00 | 0.00 | 0.00 | 86 | 1014.7 |
| 20260506125146 | 65 | 213 | 0.0 | 0.0 | 0.00 | 0.00 | 0.00 | 89 | 1014.7 |
| 20260506123021 | 62 | 190 | 0.0 | 4.0 | 0.00 | 0.00 | 0.00 | 90 | 1014.6 |
| 20260506121956 | 62 | 188 | 0.0 | 0.0 | 0.00 | 0.00 | 0.00 | 90 | 1014.7 |
| 20260506121009 | 61 | 188 | 0.0 | 0.0 | 0.00 | 0.00 | 0.00 | 91 | 1014.6 |
| 20260506120019 | 61 | 188 | 0.0 | 0.0 | 0.00 | 0.00 | 0.00 | 92 | 1014.4 |
| 20260506113904 | 58 | 184 | 0.0 | 0.0 | 0.00 | 0.00 | 0.00 | 92 | 1013.9 |
| 20260506112843 | 57 | 190 | 0.0 | 2.0 | 0.00 | 0.00 | 0.00 | 92 | 1013.7 |
| 20260506111811 | 57 | 192 | 0.0 | 0.0 | 0.00 | 0.00 | 0.00 | 91 | 1013.8 |
| 20260506110826 | 56 | 192 | 0.0 | 0.0 | 0.00 | 0.00 | 0.00 | 91 | 1013.3 |
| 20260506105837 | 56 | 192 | 0.0 | 0.0 | 0.00 | 0.00 | 0.00 | 91 | 1013.3 |
| 20260506104819 | 56 | 192 | 0.0 | 0.0 | 0.00 | 0.00 | 0.00 | 90 | 1013.3 |
| 20260506103754 | 56 | 192 | 0.0 | 0.0 | 0.00 | 0.00 | 0.00 | 90 | 1013.2 |
| 20260506102804 | 56 | 192 | 0.0 | 0.0 | 0.00 | 0.00 | 0.00 | 90 | 1013.1 |
| 20260506101743 | 57 | 192 | 0.0 | 0.0 | 0.00 | 0.00 | 0.00 | 90 | 1013.1 |
| 20260506100708 | 57 | 192 | 0.0 | 0.0 | 0.00 | 0.00 | 0.00 | 89 | 1013.0 |
| 20260506095654 | 57 | 192 | 0.0 | 0.0 | 0.00 | 0.00 | 0.00 | 89 | 1013.0 |
| 20260506093511 | 57 | 192 | 0.0 | 0.0 | 0.00 | 0.00 | 0.00 | 88 | 1013.3 |
| 20260506092457 | 57 | 192 | 0.0 | 0.0 | 0.00 | 0.00 | 0.00 | 88 | 1013.5 |
| 20260506091437 | 58 | 192 | 0.0 | 0.0 | 0.00 | 0.00 | 0.00 | 89 | 1013.5 |
| 20260506090450 | 58 | 192 | 0.0 | 0.0 | 0.00 | 0.00 | 0.00 | 88 | 1013.6 |
| 20260506085455 | 58 | 192 | 0.0 | 0.0 | 0.00 | 0.00 | 0.00 | 88 | 1013.6 |
| 20260506084515 | 58 | 192 | 0.0 | 0.0 | 0.00 | 0.00 | 0.00 | 88 | 1013.8 |
| 20260506083538 | 59 | 192 | 0.0 | 0.0 | 0.00 | 0.00 | 0.00 | 88 | 1013.8 |
| 20260506082540 | 59 | 192 | 0.0 | 0.0 | 0.00 | 0.00 | 0.00 | 88 | 1013.7 |
| 20260506081512 | 59 | 192 | 0.0 | 0.0 | 0.00 | 0.00 | 0.00 | 88 | 1013.6 |
| 20260506080450 | 59 | 192 | 0.0 | 0.0 | 0.00 | 0.00 | 0.00 | 88 | 1013.7 |
| 20260506070906 | 59 | 192 | 0.0 | 0.0 | 0.00 | 0.00 | 0.00 | 85 | 1013.7 |
| 20260506061634 | 61 | 192 | 0.0 | 0.0 | 0.00 | 0.00 | 0.00 | 83 | 1013.8 |
| 20260506060623 | 61 | 192 | 0.0 | 0.0 | 0.00 | 0.00 | 0.00 | 81 | 1013.7 |
| 20260506050451 | 64 | 192 | 0.0 | 0.0 | 0.00 | 0.00 | 0.00 | 78 | 1014.3 |
| 20260506043334 | 65 | 178 | 0.0 | 3.0 | 0.00 | 0.00 | 0.00 | 76 | 1014.3 |
| 20260506042339 | 65 | 178 | 0.0 | 3.0 | 0.00 | 0.00 | 0.00 | 75 | 1014.5 |
| 20260506041354 | 66 | 201 | 0.0 | 5.0 | 0.00 | 0.00 | 0.00 | 75 | 1014.6 |
| 20260506040320 | 66 | 167 | 0.0 | 0.0 | 0.00 | 0.00 | 0.00 | 74 | 1014.4 |
| 20260506035249 | 66 | 189 | 0.0 | 2.0 | 0.00 | 0.00 | 0.00 | 74 | 1014.3 |
| 20260506034304 | 67 | 195 | 0.0 | 6.0 | 0.00 | 0.00 | 0.00 | 73 | 1014.5 |
| 20260506033304 | 67 | 172 | 1.0 | 9.0 | 0.00 | 0.00 | 0.00 | 74 | 1014.4 |
| 20260506032316 | 67 | 167 | 0.0 | 9.0 | 0.00 | 0.00 | 0.00 | 73 | 1014.3 |
| 20260506031325 | 67 | 167 | 0.0 | 7.0 | 0.00 | 0.00 | 0.00 | 73 | 1014.2 |
| 20260506025135 | 68 | 180 | 0.0 | 6.0 | 0.00 | 0.00 | 0.00 | 73 | 1014.2 |